CW9086 Weather Reports


Display with metric or nautical units.
time (UTC)temp
F
wind
direction
speed
MPH
gust
MPH
rain 1hr
in
rain 24hr
in
rain mn
in
humidity
%
barometer
mb
20260508222605 58 195 1.0 3.0 0.00 0.00 0.00 76 1021.7
20260508222105 58 210 1.0 3.0 0.00 0.00 0.00 76 1021.7
20260508221604 58 199 1.0 3.0 0.00 0.00 0.00 75 1021.7
20260508221104 58 195 0.0 3.0 0.00 0.00 0.00 74 1021.6
20260508220606 58 211 1.0 3.0 0.00 0.00 0.00 73 1021.6
20260508220104 59 211 1.0 3.0 0.00 0.00 0.00 73 1021.6
20260508215605 59 195 1.0 3.0 0.00 0.00 0.00 72 1021.5
20260508215104 59 201 1.0 3.0 0.00 0.00 0.00 72 1021.5
20260508214106 59 195 1.0 3.0 0.00 0.00 0.00 71 1021.4
20260508213605 60 232 1.0 3.0 0.00 0.00 0.00 70 1021.4
20260508213106 60 195 1.0 3.0 0.00 0.00 0.00 71 1021.4
20260508212604 60 210 0.0 3.0 0.00 0.00 0.00 70 1021.4
20260508212105 60 195 1.0 3.0 0.00 0.00 0.00 70 1021.4
20260508211604 60 200 1.0 5.0 0.00 0.00 0.00 68 1021.4
20260508210604 62 211 1.0 5.0 0.00 0.00 0.00 68 1021.3
20260508210104 62 195 2.0 5.0 0.00 0.00 0.00 68 1021.1
20260508205604 62 206 1.0 3.0 0.00 0.00 0.00 69 1021.2
20260508204605 61 212 1.0 5.0 0.00 0.00 0.00 69 1021.0
20260508204104 61 214 1.0 6.0 0.00 0.00 0.00 69 1020.9
20260508203104 61 195 2.0 6.0 0.00 0.00 0.00 70 1020.8
20260508202604 60 206 2.0 7.0 0.00 0.00 0.00 70 1020.9
20260508202104 60 210 2.0 7.0 0.00 0.00 0.00 69 1020.8
20260508201604 60 215 1.0 5.0 0.00 0.00 0.00 70 1020.8
20260508201104 60 223 1.0 3.0 0.00 0.00 0.00 70 1020.7
20260508200604 60 214 1.0 3.0 0.00 0.00 0.00 70 1020.7
20260508200104 60 222 1.0 5.0 0.00 0.00 0.00 69 1020.8
20260508195604 60 195 2.0 5.0 0.00 0.00 0.00 69 1020.7
20260508195104 60 211 1.0 8.0 0.00 0.00 0.00 68 1020.7
20260508194604 60 206 2.0 8.0 0.00 0.00 0.00 67 1020.6
20260508194104 61 195 1.0 6.0 0.00 0.00 0.00 69 1020.5
20260508193604 61 195 2.0 6.0 0.00 0.00 0.00 68 1020.5
20260508193105 61 195 1.0 6.0 0.00 0.00 0.00 68 1020.5
20260508192605 61 196 1.0 6.0 0.00 0.00 0.00 68 1020.4
20260508191604 61 195 1.0 6.0 0.00 0.00 0.00 71 1020.5
20260508191104 60 195 2.0 6.0 0.00 0.00 0.00 70 1020.3
20260508190604 60 214 2.0 6.0 0.00 0.00 0.00 70 1020.4
20260508190105 60 197 1.0 6.0 0.00 0.00 0.00 70 1020.3
20260508185605 59 209 1.0 5.0 0.00 0.00 0.00 71 1020.2
20260508185104 59 213 1.0 5.0 0.00 0.00 0.00 71 1020.3
20260508184604 59 195 1.0 5.0 0.00 0.00 0.00 73 1020.3
20260508183604 58 195 1.0 5.0 0.00 0.00 0.00 72 1020.3
20260508182105 57 195 1.0 3.0 0.00 0.00 0.00 72 1020.2
20260508181604 57 195 1.0 3.0 0.00 0.00 0.00 72 1020.3
20260508180605 58 195 0.0 3.0 0.00 0.00 0.00 71 1020.2
20260508180104 57 215 1.0 3.0 0.00 0.00 0.00 71 1020.1
20260508175605 57 223 1.0 3.0 0.00 0.00 0.00 72 1020.1
20260508175105 57 195 2.0 3.0 0.00 0.00 0.00 72 1020.1
20260508174604 57 195 1.0 3.0 0.00 0.00 0.00 72 1020.1
20260508174105 57 213 0.0 3.0 0.00 0.00 0.00 72 1019.9
20260508173604 57 213 0.0 5.0 0.00 0.00 0.00 73 1020.0
20260508173104 56 213 1.0 5.0 0.00 0.00 0.00 73 1020.0
20260508172604 56 210 1.0 3.0 0.00 0.00 0.00 73 1019.9
20260508172104 56 208 0.0 3.0 0.00 0.00 0.00 72 1019.9
20260508171603 56 202 1.0 5.0 0.00 0.00 0.00 72 1019.8
20260508170105 56 212 0.0 3.0 0.00 0.00 0.00 71 1019.7
20260508165604 56 209 0.0 3.0 0.00 0.00 0.00 71 1019.7
20260508165104 56 212 0.0 3.0 0.00 0.00 0.00 72 1019.6
20260508164606 56 212 1.0 3.0 0.00 0.00 0.00 72 1019.6
20260508164105 56 223 1.0 3.0 0.00 0.00 0.00 73 1019.5
20260508163604 56 197 2.0 3.0 0.00 0.00 0.00 75 1019.5
20260508163104 55 211 0.0 2.0 0.00 0.00 0.00 74 1019.4
20260508162604 54 211 1.0 3.0 0.00 0.00 0.00 74 1019.4
20260508162105 54 195 1.0 3.0 0.00 0.00 0.00 74 1019.5
20260508161605 55 196 0.0 3.0 0.00 0.00 0.00 75 1019.4
20260508161106 54 220 0.0 1.0 0.00 0.00 0.00 76 1019.3
20260508160604 54 219 0.0 1.0 0.00 0.00 0.00 76 1019.3
20260508160105 54 219 0.0 3.0 0.00 0.00 0.00 76 1019.3
20260508155604 54 219 0.0 3.0 0.00 0.00 0.00 76 1019.2
20260508155104 54 228 1.0 3.0 0.00 0.00 0.00 76 1019.2
20260508154604 54 195 1.0 3.0 0.00 0.00 0.00 76 1019.3
20260508154104 53 195 0.0 3.0 0.00 0.00 0.00 76 1019.3
20260508153605 53 197 0.0 5.0 0.00 0.00 0.00 76 1019.2
20260508152604 53 215 0.0 3.0 0.00 0.00 0.00 76 1019.2
20260508152104 53 210 1.0 3.0 0.00 0.00 0.00 76 1019.0
20260508151605 53 195 0.0 3.0 0.00 0.00 0.00 77 1019.0
20260508151104 53 209 0.0 2.0 0.00 0.00 0.00 78 1019.0
20260508150104 53 209 0.0 1.0 0.00 0.00 0.00 79 1018.6
20260508145604 52 209 0.0 1.0 0.00 0.00 0.00 79 1018.5
20260508145104 52 209 0.0 2.0 0.00 0.00 0.00 78 1018.3
20260508144604 52 209 0.0 2.0 0.00 0.00 0.00 78 1018.3
20260508144105 52 209 0.0 2.0 0.00 0.00 0.00 78 1018.3
20260508143605 52 209 0.0 1.0 0.00 0.00 0.00 78 1018.3
20260508143105 51 209 0.0 0.0 0.00 0.00 0.00 78 1018.3
20260508142604 51 209 0.0 2.0 0.00 0.00 0.00 78 1018.3
20260508142104 51 209 0.0 2.0 0.00 0.00 0.00 78 1018.1
20260508141103 51 209 0.0 0.0 0.00 0.00 0.00 78 1018.1
20260508140605 51 209 0.0 0.0 0.00 0.00 0.00 78 1018.1
20260508140105 51 209 0.0 2.0 0.00 0.00 0.00 78 1017.9
20260508135605 51 209 0.0 3.0 0.00 0.00 0.00 78 1018.0
20260508135104 51 209 0.0 3.0 0.00 0.00 0.00 78 1017.9
20260508134604 51 195 0.0 2.0 0.00 0.00 0.00 78 1017.8
20260508134104 51 209 0.0 2.0 0.00 0.00 0.00 78 1018.0
20260508133604 51 209 0.0 1.0 0.00 0.00 0.00 78 1018.1
20260508133104 51 209 0.0 1.0 0.00 0.00 0.00 78 1018.1
20260508132604 51 230 0.0 2.0 0.00 0.00 0.00 78 1018.2
20260508131604 50 209 0.0 3.0 0.00 0.00 0.00 78 1018.2
20260508131104 50 212 0.0 3.0 0.00 0.00 0.00 78 1018.2
20260508130604 50 196 1.0 3.0 0.00 0.00 0.00 79 1018.1
20260508130104 50 195 0.0 3.0 0.00 0.00 0.00 79 1018.1
20260508125603 50 195 0.0 3.0 0.00 0.00 0.00 79 1018.1
20260508125104 50 195 0.0 2.0 0.00 0.00 0.00 79 1018.0
20260508124104 50 197 0.0 2.0 0.00 0.00 0.00 79 1017.9
20260508123605 50 199 0.0 2.0 0.00 0.00 0.00 79 1018.0
20260508123103 50 197 0.0 3.0 0.00 0.00 0.00 80 1018.0
20260508122605 50 196 0.0 3.0 0.00 0.00 0.00 80 1018.0
20260508122104 50 197 0.0 1.0 0.00 0.00 0.00 80 1018.0
20260508121603 50 198 0.0 3.0 0.00 0.00 0.00 80 1018.0
20260508121105 50 199 0.0 3.0 0.00 0.00 0.00 80 1018.0
20260508120604 50 280 0.0 2.0 0.00 0.00 0.00 80 1018.0
20260508120104 50 279 0.0 2.0 0.00 0.00 0.00 81 1018.0
20260508115604 50 209 0.0 2.0 0.00 0.00 0.00 81 1017.9
20260508115104 50 280 0.0 1.0 0.00 0.00 0.00 81 1017.9
20260508114604 50 280 0.0 2.0 0.00 0.00 0.00 81 1017.8
20260508114104 50 209 0.0 2.0 0.00 0.00 0.00 82 1017.7
20260508113604 49 209 0.0 1.0 0.00 0.00 0.00 82 1017.8
20260508112604 49 209 0.0 1.0 0.00 0.00 0.00 82 1017.7
20260508112104 49 209 0.0 2.0 0.00 0.00 0.00 83 1017.7
20260508111603 49 209 0.0 2.0 0.00 0.00 0.00 83 1017.7
20260508111104 49 209 0.0 2.0 0.00 0.00 0.00 84 1017.6
20260508110604 49 291 0.0 2.0 0.00 0.00 0.00 84 1017.5
20260508105604 49 213 0.0 3.0 0.00 0.00 0.00 85 1017.5
20260508105104 49 212 0.0 3.0 0.00 0.00 0.00 85 1017.5
20260508104603 48 213 0.0 3.0 0.00 0.00 0.00 86 1017.4
20260508104103 48 235 0.0 3.0 0.00 0.00 0.00 86 1017.4
20260508103605 48 224 0.0 2.0 0.00 0.00 0.00 86 1017.4
20260508103104 48 224 0.0 1.0 0.00 0.00 0.00 86 1017.4
20260508102604 48 219 0.0 1.0 0.00 0.00 0.00 86 1017.3
20260508101604 48 221 0.0 2.0 0.00 0.00 0.00 86 1017.2
20260508100105 47 220 0.0 1.0 0.00 0.00 0.00 86 1017.1
20260508095604 47 221 0.0 1.0 0.00 0.00 0.00 86 1017.1
20260508094604 46 218 0.0 0.0 0.00 0.00 0.00 86 1016.9
20260508094103 46 216 0.0 1.0 0.00 0.00 0.00 86 1016.9
20260508093603 46 216 0.0 1.0 0.00 0.00 0.00 86 1016.7
20260508093104 46 220 0.0 1.0 0.00 0.00 0.00 86 1016.8
20260508092605 46 221 0.0 1.0 0.00 0.00 0.00 86 1016.7
20260508092108 46 219 0.0 0.0 0.00 0.00 0.00 85 1016.7
20260508091603 45 223 0.0 0.0 0.00 0.00 0.00 85 1016.7
20260508091106 45 220 0.0 0.0 0.00 0.00 0.00 85 1016.7
20260508090606 45 218 0.0 0.0 0.00 0.00 0.00 85 1016.6
20260508090106 45 217 0.0 0.0 0.00 0.00 0.00 85 1016.6
20260508085605 45 216 0.0 0.0 0.00 0.00 0.00 84 1016.6
20260508085105 45 221 0.0 0.0 0.00 0.00 0.00 84 1016.6
20260508084606 45 216 0.0 0.0 0.00 0.00 0.00 84 1016.7
20260508084106 45 216 0.0 0.0 0.00 0.00 0.00 84 1016.7
20260508083107 45 218 0.0 0.0 0.00 0.00 0.00 83 1016.6
20260508082605 45 218 0.0 0.0 0.00 0.00 0.00 83 1016.6
20260508082106 45 216 0.0 0.0 0.00 0.00 0.00 83 1016.6
20260508081105 45 220 0.0 0.0 0.00 0.00 0.00 83 1016.6
20260508080105 45 217 0.0 0.0 0.00 0.00 0.00 82 1016.5
20260508075607 45 216 0.0 0.0 0.00 0.00 0.00 82 1016.4
20260508075105 45 216 0.0 0.0 0.00 0.00 0.00 82 1016.5
20260508074105 45 224 0.0 0.0 0.00 0.00 0.00 82 1016.4
20260508073606 45 218 0.0 0.0 0.00 0.00 0.00 82 1016.4
20260508073105 45 221 0.0 0.0 0.00 0.00 0.00 82 1016.4
20260508072605 46 219 0.0 0.0 0.00 0.00 0.00 81 1016.4
20260508072106 46 220 0.0 0.0 0.00 0.00 0.00 81 1016.5
20260508071605 46 218 0.0 0.0 0.00 0.00 0.00 81 1016.5
20260508071110 46 217 0.0 0.0 0.00 0.00 0.00 81 1016.5
20260508070605 46 217 0.0 0.0 0.00 0.00 0.00 81 1016.6
20260508070106 46 218 0.0 0.0 0.00 0.00 0.00 81 1016.5
20260508065106 46 222 0.0 0.0 0.00 0.00 0.00 80 1016.5
20260508064606 46 223 0.0 0.0 0.00 0.00 0.00 80 1016.5
20260508063605 46 220 0.0 0.0 0.00 0.00 0.00 79 1016.5
20260508063106 46 218 0.0 0.0 0.00 0.00 0.00 79 1016.5
20260508062606 46 217 0.0 0.0 0.00 0.00 0.00 79 1016.5
20260508062106 47 216 0.0 0.0 0.00 0.00 0.00 79 1016.5
20260508061605 47 216 0.0 0.0 0.00 0.00 0.00 78 1016.5
20260508061105 47 216 0.0 0.0 0.00 0.00 0.00 77 1016.5
20260508060106 47 216 0.0 0.0 0.00 0.00 0.00 77 1016.5
20260508055105 47 216 0.0 0.0 0.00 0.00 0.00 77 1016.4
20260508054605 47 216 0.0 0.0 0.00 0.00 0.00 77 1016.5
20260508053605 47 216 0.0 0.0 0.00 0.00 0.00 77 1016.6
20260508052605 48 216 0.0 0.0 0.00 0.00 0.00 77 1016.6
20260508052105 48 216 0.0 0.0 0.00 0.00 0.00 77 1016.7
20260508051106 48 216 0.0 0.0 0.00 0.00 0.00 77 1016.7
20260508045606 49 216 0.0 0.0 0.00 0.00 0.00 76 1016.7
20260508045105 49 216 0.0 0.0 0.00 0.00 0.00 76 1016.7
20260508044606 49 216 0.0 0.0 0.00 0.00 0.00 76 1016.8
20260508044106 49 216 0.0 0.0 0.00 0.00 0.00 76 1016.7
20260508043605 49 216 0.0 0.0 0.00 0.00 0.00 75 1016.8
20260508043105 50 216 0.0 0.0 0.00 0.00 0.00 75 1016.9
20260508042605 50 216 0.0 0.0 0.00 0.00 0.00 76 1016.8
20260508042105 50 216 0.0 0.0 0.00 0.00 0.00 76 1016.9
20260508040607 51 216 0.0 0.0 0.00 0.00 0.00 76 1016.9
20260508035605 51 216 0.0 2.0 0.00 0.00 0.00 76 1016.7
20260508034605 51 216 0.0 2.0 0.00 0.00 0.00 76 1016.8
20260508034106 52 216 0.0 2.0 0.00 0.00 0.00 76 1016.8
20260508033605 52 214 0.0 1.0 0.00 0.00 0.00 75 1016.8
20260508033105 52 217 0.0 1.0 0.00 0.00 0.00 75 1016.8
20260508032605 52 217 0.0 0.0 0.00 0.00 0.00 75 1016.8
20260508032105 52 217 0.0 0.0 0.00 0.00 0.00 75 1016.8
20260508031605 52 217 0.0 0.0 0.00 0.00 0.00 75 1016.8
20260508030605 53 216 0.0 0.0 0.00 0.00 0.00 74 1016.8
20260508030106 53 216 0.0 0.0 0.00 0.00 0.00 74 1016.8
20260508025605 53 216 0.0 2.0 0.00 0.00 0.00 74 1016.8
20260508025106 53 216 0.0 2.0 0.00 0.00 0.00 73 1016.7
20260508024605 54 220 0.0 2.0 0.00 0.00 0.00 73 1016.7
20260508024106 54 218 0.0 1.0 0.00 0.00 0.00 72 1016.7
20260508023605 54 216 0.0 1.0 0.00 0.00 0.00 72 1016.6
20260508023105 55 215 0.0 1.0 0.00 0.00 0.00 72 1016.7
20260508022604 55 217 0.0 1.0 0.00 0.00 0.00 71 1016.7
20260508022105 55 219 0.0 1.0 0.00 0.00 0.00 71 1016.7
20260508021606 56 218 0.0 1.0 0.00 0.00 0.00 70 1016.7
20260508021105 56 220 0.0 1.0 0.00 0.00 0.00 69 1016.8
20260508020605 57 219 0.0 1.0 0.00 0.00 0.00 68 1016.9
20260508020105 57 219 0.0 2.0 0.00 0.00 0.00 68 1017.0
20260508015608 58 215 0.0 2.0 0.00 0.00 0.00 67 1017.1
20260508015106 58 215 0.0 3.0 0.00 0.00 0.00 67 1017.0
20260508014605 58 214 1.0 3.0 0.00 0.00 0.00 67 1017.1
20260508014105 59 212 0.0 2.0 0.00 0.00 0.00 67 1017.1
20260508013605 59 212 0.0 2.0 0.00 0.00 0.00 67 1017.2
20260508013105 59 212 0.0 3.0 0.00 0.00 0.00 68 1017.2
20260508012605 59 212 0.0 3.0 0.00 0.00 0.00 67 1017.3
20260508012106 59 212 0.0 3.0 0.00 0.00 0.00 67 1017.2
20260508011605 59 209 2.0 3.0 0.00 0.00 0.00 66 1017.3
20260508011105 59 214 1.0 3.0 0.00 0.00 0.00 67 1017.4
20260508010606 59 212 0.0 3.0 0.00 0.00 0.00 66 1017.4
20260508005605 59 213 0.0 3.0 0.00 0.00 0.00 65 1017.4
20260508005105 60 214 1.0 3.0 0.00 0.00 0.00 65 1017.4
20260508004606 60 209 1.0 3.0 0.00 0.00 0.00 64 1017.5
20260508004106 60 214 0.0 3.0 0.00 0.00 0.00 65 1017.6
20260508003605 60 216 1.0 3.0 0.00 0.00 0.00 65 1017.7
20260508002604 60 212 1.0 3.0 0.00 0.00 0.00 65 1017.7
20260508002106 60 212 0.0 2.0 0.00 0.00 0.00 65 1017.7
20260508001604 60 210 0.0 2.0 0.00 0.00 0.00 65 1017.7
20260508001104 60 209 1.0 2.0 0.00 0.00 0.00 65 1017.8
20260508000104 60 210 0.0 2.0 0.00 0.00 0.00 66 1017.7
20260507235605 60 210 0.0 3.0 0.00 0.00 0.00 66 1017.8
20260507235105 60 216 1.0 3.0 0.00 0.00 0.00 65 1017.8
20260507234605 60 213 0.0 3.0 0.00 0.00 0.00 65 1017.8
20260507234105 60 213 1.0 3.0 0.00 0.00 0.00 65 1017.8
20260507233604 60 212 1.0 2.0 0.00 0.00 0.00 66 1017.8
20260507233105 60 212 1.0 3.0 0.00 0.00 0.00 65 1017.9
20260507232604 60 212 0.0 3.0 0.00 0.00 0.00 66 1018.0
20260507232104 60 213 1.0 3.0 0.00 0.00 0.00 66 1018.0
20260507231604 60 211 0.0 3.0 0.00 0.00 0.00 65 1018.0
20260507231105 60 214 1.0 3.0 0.00 0.00 0.00 66 1018.1
20260507230604 60 209 1.0 3.0 0.00 0.00 0.00 66 1018.2
20260507225105 60 214 1.0 3.0 0.00 0.00 0.00 65 1018.4
20260507224604 60 201 1.0 3.0 0.00 0.00 0.00 64 1018.5
20260507224104 60 210 1.0 3.0 0.00 0.00 0.00 65 1018.6
20260507223105 61 212 1.0 2.0 0.00 0.00 0.00 64 1018.7